Regional Weather Roundup
Issued by NWS

Home | Current Version | Previous Version | Text Only | Print | Product List | Glossary Off
Versions: 1 2 3 4 5 6 7 8 9 10 11 12 13 14 15 16 17 18 19 20 21 22 23 24 25 26 27 28 29 30 31 32 33 34 35 36 37 38 39 40 41 42 43 44 45 46 47 48 49 50

000
ASUS43 KLSX 302259
RWRMO

WEATHER SUMMARY FOR MISSOURI
NATIONAL WEATHER SERVICE SPRINGFIELD MO
600 PM CDT TUE JUN 30 2015

NOTE: "FAIR" INDICATES FEW OR NO CLOUDS BELOW 12,000 FEET WITH NO
       SIGNIFICANT WEATHER AND/OR OBSTRUCTIONS TO VISIBILITY.
       CURRENT SKY AND/OR WEATHER CONDITIONS ARE NOT AVAILABLE FOR
       CHILLICOTHE AND FARMINGTON.

MOZ001>031-035>038-043-044-053-054-010000-
...NORTHERN AND WESTERN MISSOURI...

CITY           SKY/WX    TMP DP  RH WIND       PRES   REMARKS
KANSAS CTY INT CLOUDY    83  66  56 E6        29.89F
KANSAS C DTWN  PTSUNNY   85  63  47 E5        29.87F
LEE`S SUMMIT   PTSUNNY   85  62  46 E5        29.90F
ST JOSEPH      CLOUDY    83  67  58 E5        29.88F
CHILLICOTHE      N/A     80  72  76 CALM      29.90F
KIRKSVILLE     PTSUNNY   78  67  68 W5        29.90S

$$
MOZ066>068-077>081-088>096-101>105-010000-
...SOUTHWEST MISSOURI...

CITY           SKY/WX    TMP DP  RH WIND       PRES   REMARKS
SPRINGFIELD    PTSUNNY   87  67  51 NW6       29.93F HX  90
JOPLIN         MOSUNNY   90  70  51 VRB3      29.92S HX  95

$$
MOZ032>034-039>042-045>050-055>058-069>072-010000-
...CENTRAL MISSOURI...

CITY           SKY/WX    TMP DP  RH WIND       PRES   REMARKS
COLUMBIA       PTSUNNY   80  69  69 W9        29.89F
JEFFERSON CITY PTSUNNY   82  66  58 W7        29.88S
ROLLA          MOSUNNY   80  70  71 W6        29.90F
SEDALIA        CLOUDY    82  71  69 MISG      29.91F
OSAGE BEACH    PTSUNNY   82  70  65 SW6       29.91F

$$
MOZ051-052-059>065-010000-
...EAST CENTRAL MISSOURI...

CITY           SKY/WX    TMP DP  RH WIND       PRES   REMARKS
ST LOUIS INTL  MOSUNNY   84  68  58 W12       29.86S
SPIRIT OF STL  SUNNY     81  72  74 W7        29.85S
ST CHARLES     SUNNY     83  69  62 W8        29.84S

$$
MOZ072>076-082>087-097>100-106>115-010000-
...SOUTH CENTRAL AND SOUTHEAST MISSOURI...

CITY           SKY/WX    TMP DP  RH WIND       PRES   REMARKS
CAPE GIRARDEAU SUNNY     84  68  58 W13       29.86F
FARMINGTON     SUNNY     79  66  65 W5        29.93F
POPLAR BLUFF   SUNNY     86  69  56 W7        29.87F HX  90
WEST PLAINS    MOSUNNY   83  67  58 W5        29.95F

$$


USA.gov is the U.S. government's official web portal to all federal, state and local government web resources and services.